Showing default

ASTROCAST-0403, 55111

Orbit data source: Space-Track

ASTROCAST-0403, 55111 is a payload satellite owned by Astrocast (CH) in SSO that was launched on Tue, 03 Jan 2023 UTC via an FALCON 9 launch vehicle from the Air Force Eastern Test Range (AFETR). Payload-class satellites include a variety of spacecraft equipped with specific instruments for various scientific and technological missions. These include communications satellites like Starlink; space stations such as the ISS; scientific satellites like the Hubble; Earth observation satellites from companies like Planet Labs, Umbra, and HawkEye 360; GPS; miniature CubeSats for education and research; and military/defense satellites.

Loading next visibility...
Identifier
55111, 2023-001DG
Orbit
SSO
Country
Flag of UnknownUnknown / SWTZ
Related business
Manufacturer
Astrocast
Mission
Operational Commercial Communications
Bus & Motor
CUBESAT 3U, Unknown motor
Mass
4.5 kg wet, 4.5 kg dry
Launch date (UTC)
2023-01-03 (3 years ago)
Launch vehicle
FALCON 9
Launch site
Air Force Eastern Test Range (AFETR)
Object type
Payload
Rocket body
Debris
Shape & HBR
Box, 0.1 m
Radar Cross Section
0.035 m², Medium (>0.1 m² and < 1m²)

Expand to show TLE details & history
Last TLE update: 10 hours ago

TLE from 10 hours ago
0 ASTROCAST-0403
1 55111U 23001DG  25286.92911362  .00020079  00000-0  84207-3 0  9997
2 55111  97.5741  12.6270 0007058 122.6193 237.5726 15.23509578106970
Epoch: 2025-10-13T22:17Z
TLE epoch observation values (Epoch: 2025-10-13T22:17:55.416Z)
Latitude
-0°
Longitude
15.42125°
Altitude
500.959 km
Speed
7.612 km/s
True Right ascension
00h 50m 30s
True Declination
0° 00' 00"
Sunlit
Object was in full shadow at epoch
Visualization orbit readout
Latitude
Unknown
Longitude
Unknown
Altitude
Unknown
Speed
Unknown
Apparent Right ascension
Unknown
Apparent Declination
Unknown
Sunlit
N/A
Visualization observer readout
Local Sidereal Time
02:54:07
Azimuth
Unknown
Elevation
Unknown
Doppler factor
Unknown
Orbital elements
Apogee altitude
497.082 km
Perigee altitude
487.384 km
Semi-major axis
6,870.37 km
Eccentricity
0.00071
Inclination
97.5741°
RAAN
12.627°
Arg. of periapsis
122.6193°
True anomaly
237.50436°
Mean anomaly
237.5726°
Eccentric anomaly
237.53848°
Mean motion
3.8113 °/min
Orbital period
94.46 mins
BSTAR
0.00084207
Loading maneuver chart data...
Computing Atmospheric mass density...
Loading historical data...
Loading historical data...
Loading historical data...
Loading historical data...
Loading historical data...
Loading historical data...
Loading historical data...

Documentation

Showing up to 5 results
|